Location: Borkenes
(68.7830°N, 16.1830°E)
Time: 14:37:26
(UTC+01:00)

Envisat - Visible Passes

Search period start: 21 March 2019 00:00
Search period end: 31 March 2019 00:00
Orbit: 764 x 766 km, 98.2° (Epoch: 21 March)

Date Brightness Start Highest point End Pass type
(mag) Time Alt. Az. Time Alt. Az. Time Alt. Az.
21 Mar 6.0 20:25:21 10° WSW 20:28:25 16° WNW 20:31:31 10° NW visible
22 Mar 5.7 19:47:02 10° SW 19:51:03 23° W 19:55:06 10° NNW visible
23 Mar 6.2 20:52:34 10° W 20:54:29 12° WNW 20:56:25 10° NW visible
24 Mar 5.9 20:13:35 10° WSW 20:17:01 18° WNW 20:20:26 10° NW visible
25 Mar 5.5 19:35:27 10° SW 19:39:41 26° W 19:43:57 10° NNW visible
26 Mar 6.1 20:40:33 10° W 20:43:02 13° WNW 20:45:32 10° NW visible
27 Mar 5.8 20:01:55 10° SW 20:05:36 20° W 20:09:19 10° NNW visible
28 Mar 6.5 21:09:04 10° WNW 21:09:09 10° WNW 21:09:13 10° WNW visible
29 Mar 6.0 20:28:41 10° WSW 20:31:36 15° WNW 20:34:32 10° NW visible
30 Mar 5.8 19:50:16 10° SW 19:54:13 22° W 19:58:11 10° NNW visible
